sat.trackr.live / text

‹ back to catalog

STARLINK-37787

NORAD 69692 · 2026-145R

PAYLOAD ACTIVE UNKNOWN

§ Identity

Operator
Country
US
Launch date
2026-06-25
Launch site
AFWTR
Launch vehicle
Mass (kg)
RCS (m²)

Purposes: comms

External: N2YO · Heavens-Above · Gunter

§ Orbital elements

Epoch: 2026-09-20T00:40:24.854016Z

Period
93.91 min
Inclination
97.2841°
Eccentricity
0.0001458
Mean motion
15.33446615 rev/d
Perigee alt
464.5 km
Apogee alt
466.5 km
Semi-major
6,843.7 km
B*
3.0764e-4
RAAN
109.7424°
Arg perigee
93.9379°
Mean anomaly
266.2031°
Rev number
1,347

§ Raw data

STARLINK-377871 69692U 26145R   26263.02806544  .00009870  00000+0  30764-3 0  99942 69692  97.2841 109.7424 0001458  93.9379 266.2031 15.33446615 13473

JSON: /api/v1/satellites/69692 · /tle

For live sub-satellite position, see the globe view (requires WebGL).

§ Visibility from observer

Set your observer location to see the next 7 days of passes ≥ 10°. The values pass through the URL so the page stays shareable.

No JS? Fill the form by hand. The geolocation button needs JavaScript.